STARLINK-2399, 47816

Orbit data source: Space-Track

STARLINK-2399, 47816 is a payload satellite owned by SpaceX/Seattle (US) in LEO that was launched on Thu, 11 Mar 2021 UTC via an FALCON 9 launch vehicle from the Air Force Eastern Test Range (AFETR). Payload-class satellites include a variety of spacecraft equipped with specific instruments for various scientific and technological missions. These include communications satellites like Starlink; space stations such as the ISS; scientific satellites like the Hubble; Earth observation satellites from companies like Planet Labs, Umbra, and HawkEye 360; GPS; miniature CubeSats for education and research; and military/defense satellites.

Loading next visibility...
Identifier
47816, 2021-018AF
Orbit
LEO
Country
Flag of USUS
Related business
Manufacturer
SpaceX/Seattle
Mission
Operational Commercial Communications
Bus & Motor
STARLINK, Unknown motor
Mass
260 kg wet, ~248 kg dry
Launch date (UTC)
2021-03-11 (5 years ago)
Launch vehicle
FALCON 9
Launch site
Air Force Eastern Test Range (AFETR)
Object type
Payload
Rocket body
Debris
Shape & HBR
Box + 1 Pan, 10.1 m
Radar Cross Section
13.562 m², Large (>1 m²)

Expand to show TLE details & history
Last TLE update: 10 hours ago

TLE from 10 hours ago
0 STARLINK-2399
1 47816U 21018AF  26035.42046406 -.00002996  00000-0 -18236-3 0  9991
2 47816  53.0554  40.9728 0001333  81.6663 278.4478 15.06386943271577
Epoch: 2026-02-04T10:05Z
TLE epoch observation values (Epoch: 2026-02-04T10:05:28.094Z)
Latitude
0.00004°
Longitude
115.01847°
Altitude
547.995 km
Speed
7.589 km/s
True Right ascension
02h 43m 53s
True Declination
0° 00' 00"
Sunlit
Object was in daylight at epoch
Visualization orbit readout
Latitude
Unknown
Longitude
Unknown
Altitude
Unknown
Speed
Unknown
Apparent Right ascension
Unknown
Apparent Declination
Unknown
Sunlit
N/A
Visualization observer readout
Local Sidereal Time
21:40:23
Azimuth
Unknown
Elevation
Unknown
Doppler factor
Unknown
Orbital elements
Apogee altitude
548.445 km
Perigee altitude
546.599 km
Semi-major axis
6,925.659 km
Eccentricity
0.00013
Inclination
53.0554°
RAAN
40.9728°
Arg. of periapsis
81.6663°
True anomaly
278.43269°
Mean anomaly
278.4478°
Eccentric anomaly
278.44025°
Mean motion
3.76575 °/min
Orbital period
95.6 mins
BSTAR
-0.00018236
Loading maneuver chart data...
Computing Atmospheric mass density...
Loading historical data...
Loading historical data...
Loading historical data...
Loading historical data...
Loading historical data...
Loading historical data...
Loading historical data...

Documentation

Showing up to 5 results
|